Location: Boiro
(42.6475°N, 8.8834°W)
Time: 06:45:04
(UTC+01:00)

Vanguard 1 - Pass Details

Date: 02 December 2021
Orbit: 652 x 3830 km, 34.2° (Epoch: 21 January)

Event Time Altitude Azimuth Distance (km) Brightness Sun altitude
Rises 00:42:15 0° 219° (SW) 7,093 14.3 -67.5°
Enters shadow 00:42:40 - 218° (SW) 7,027 14.3 -67.5°
Reaches altitude 10° 00:46:55 10° 213° (SSW) 6,378 - -67.8°
Maximum altitude 01:07:12 46° 149° (SSE) 4,605 - -69.0°
Exits shadow 01:24:28 15° 88° (E) 5,888 13.9 -69.3°
Drops below altitude 10° 01:26:44 10° 85° (E) 6,215 14.1 -69.3°
Sets 01:31:09 0° 80° (E) 6,913 14.5 -69.3°
